Content
SEND FEEDBACK

Daily
Averages
Monthly
Summary
United States of America

ST. LOUIS, MISSOURI


Home > North America > United States > Missouri
Elevation: 535 feet     Latitude: 38 45N     Longitude: 090 22W

WEATHER
 
SELECT A DAY
Number of Records: 201,502;   Date Range: 1/1/95 - 12/27/14
 
SHARE

PRINT THIS DATA

[ ← Previous Day ]
WEATHER ALMANAC - NOVEMBER 12, 2013
[ Next Day → ]
[ °C ]   °F
Weather ElementAverageHighLow
Temperature28.7 °F36 °F (1:54 pm)19 °F (10:54 pm)
Dewpoint17.8 °F28.4 °F (12:21 am)14 °F (2:54 pm)
Humidity65.7 %85 % (10:54 pm)41 % (2:54 pm)
Barometer30.71 in30.81 in (9:54 am)30.52 in (12:21 am)
Wind Speed8.1 mph18.4 mph (1:54 am)
Wind Gust25.3 mph (1:54 am)
Weather ElementAverage
Visibility9.9 mi
Wind DirectionSW (221.1 °)

Weather ElementTotal
Precipitation---
Heating Degree Days37.5 (Base 65)
Averaged from 27 records on November 12, 2013
WEATHER CONDITIONS BREAKOUT
WIND DIRECTION BREAKOUT
WEATHER BY HOUR - NOVEMBER 12, 2013
[ °C ]   °F
Local TimeTemperatureDewpointHumidityBarometerVisibilityWind DirectionWind SpeedGust SpeedPrecipitationEventsConditions
12:21 AM33.8 °F28.4 °F81 %30.52 in6.0 miNorth (360°)12.7 mph19.6 mph0.00 inSnowLight Snow
12:54 AM32.0 °F27.0 °F82 %30.54 in10.0 miNorth (360°)12.7 mph23.0 mph0.00 inOvercast
1:54 AM32.0 °F24.1 °F73 %30.57 in10.0 miNorth (360°)18.4 mph25.3 mphOvercast
2:40 AM30.2 °F23.0 °F75 %30.59 in10.0 miNorth (10°)13.8 mph19.6 mphOvercast
2:54 AM30.9 °F21.9 °F69 %30.60 in10.0 miNorth (360°)17.3 mph24.2 mphOvercast
3:27 AM28.4 °F19.4 °F69 %30.60 in10.0 miNorth (360°)15.0 mph21.9 mphOvercast
3:54 AM28.0 °F18.0 °F66 %30.64 in10.0 miNorth (360°)11.5 mph19.6 mphScattered Clouds
4:54 AM27.0 °F17.1 °F66 %30.68 in10.0 miNorth (360°)11.5 mphClear
5:54 AM25.0 °F18.0 °F75 %30.71 in10.0 miNNW (340°)10.4 mphClear
6:54 AM24.1 °F16.0 °F71 %30.75 in10.0 miNNW (340°)6.9 mphClear
7:54 AM26.1 °F17.1 °F69 %30.79 in10.0 miNNW (340°)11.5 mphClear
8:54 AM27.0 °F16.0 °F63 %30.79 in10.0 miNorth (360°)9.2 mphPartly Cloudy
9:54 AM30.0 °F17.1 °F59 %30.81 in10.0 miNorth (350°)9.2 mphClear
10:54 AM32.0 °F17.1 °F54 %30.81 in10.0 miNNW (340°)13.8 mphPartly Cloudy
11:54 AM33.1 °F15.1 °F48 %30.80 in10.0 miNNW (340°)9.2 mph18.4 mphClear
12:54 PM35.1 °F16.0 °F46 %30.77 in10.0 miVariable6.9 mphClear
1:54 PM36.0 °F16.0 °F44 %30.76 in10.0 miNNW (340°)8.1 mphClear
2:54 PM36.0 °F14.0 °F41 %30.75 in10.0 miNorth (10°)6.9 mphClear
3:54 PM35.1 °F14.0 °F42 %30.75 in10.0 miNorth (350°)8.1 mphClear
4:54 PM32.0 °F14.0 °F48 %30.75 in10.0 miNNW (330°)5.8 mphClear
5:54 PM30.0 °F15.1 °F54 %30.74 in10.0 miCalmClear
6:54 PM25.0 °F18.0 °F75 %30.74 in10.0 miCalmClear
7:54 PM24.1 °F17.1 °F75 %30.75 in10.0 miCalmClear
8:54 PM21.9 °F16.0 °F78 %30.75 in10.0 miCalmClear
9:54 PM21.0 °F16.0 °F81 %30.75 in10.0 miCalmClear
10:54 PM19.0 °F15.1 °F85 %30.74 in10.0 miCalmClear
11:54 PM19.0 °F15.1 °F85 %30.74 in10.0 miCalmClear
Hourly data recorded from KSUS, located miles away from St. Louis, Missouri







STORIES FROM OUR PARTNERS